Regional Weather Roundup
Issued by NWS Charleston, SC

Current Version | Previous Version | Graphics & Text | Print | Product List | Glossary On
Versions: 1 2 3 4 5 6 7 8 9 10 11 12 13 14 15 16 17 18 19 20 21 22 23 24 25 26 27 28 29 30 31 32 33 34 35 36 37 38 39 40 41 42 43 44 45 46 47 48 49 50
000 ASUS42 KCHS 240427 RWRCHS REGIONAL WEATHER ROUNDUP NATIONAL WEATHER SERVICE CHARLESTON SC 1200 AM EDT FRI MAR 24 2017 NOTE: "FAIR" INDICATES FEW OR NO CLOUDS BELOW 12,000 FEET WITH NO SIGNIFICANT WEATHER AND/OR OBSTRUCTIONS TO VISIBILITY. NOT ALL STATIONS ARE QUALITY CONTROLLED. USE DATA WITH CAUTION... ESPECIALLY DEWPOINT OBSERVATIONS. SCZ027-030-031-034>040-042>050-240500- ...SOUTHEAST SOUTH CAROLINA... CITY SKY/WX TMP DP RH WIND PRES REMARKS N CHARLESTON CLEAR 50 42 74 E10 30.49F WATERFRONT PRK N/A 54 48 80 NE7 30.48S JOHNS ISLAND FAIR 54 48 82 NE8 30.49S PINOPOLIS N/A 48 41 76 E5 30.42S MONCKS CORNER FAIR 46 36 66 E3 30.51S SUMMERVILLE FAIR 46 39 76 NE3 30.51S BEAUFORT MCAS CLEAR 50 42 74 NE6 30.48S BEAUFORT ARPT FAIR 52 45 76 NE9 30.47S HILTON HEAD IS PTCLDY N/A N/A N/A NE9 30.47S WALTERBORO CLEAR 46 37 71 CALM 30.50S ALLENDALE MOCLDY 52 37 58 E3 30.48S ...SOUTHERN MIDLANDS AND PEE DEE... CITY SKY/WX TMP DP RH WIND PRES REMARKS GEORGETOWN FAIR 50 43 76 E6 30.52S KINGSTREE FAIR 41 34 75 CALM 30.52S ORANGEBURG CLEAR 49 35 58 VRB3 30.51R BARNWELL FAIR 52 41 66 E5 30.49S AIKEN FAIR 50 34 53 SE5 30.51S MANNING FAIR 41 36 81 CALM 30.52S COLUMBIA PTCLDY 50 35 56 E6 30.50R SUMTER CLEAR 47 35 62 SE5 30.50R FLORENCE CLEAR 44 34 67 E5 30.53S MYRTLE BEACH CLEAR 52 36 54 E9 30.54R N MYRTLE BEACH CLEAR 50 35 56 NE6 30.53R $$ GAZ063-065-086>088-099>101-113>116-118-119-134>141-150-240500- ...SOUTHEAST GEORGIA... CITY SKY/WX TMP DP RH WIND PRES REMARKS SAVANNAH ARPT NOT AVBL HUNTER AAF CLEAR 54 51 89 NE5 30.43F FORT STEWART CLEAR 53 48 85 NE5 30.43F STATESBORO CLEAR 52 45 76 E3 30.47S SYLVANIA CLEAR N/A N/A N/A E5 30.48S CLAXTON FAIR N/A N/A N/A NE5 30.46S ...CSRA...CENTRAL AND FAR SOUTHEAST GEORGIA... CITY SKY/WX TMP DP RH WIND PRES REMARKS THOMSON CLEAR 54 35 48 S6 30.51S AUGUSTA-BUSH CLEAR 54 38 54 SE3 30.48R AUGUSTA-DANIEL CLEAR 55 34 45 E7 30.47S SWAINSBORO CLOUDY 57 45 62 SE7 30.46S VIDALIA CLEAR 54 46 76 E6 30.45S EASTMAN MOCLDY 58 35 41 SE6 30.46S HAZLEHURST FAIR 55 52 89 E6 30.43S ALMA CLOUDY 54 51 90 E6 30.43S WAYCROSS CLOUDY 59 58 96 E9 30.43R JESUP CLOUDY 54 50 87 NE3 30.44S BAXLEY CLOUDY 54 54 100 E5 30.43S BRUNSWICK CLEAR 59 55 88 NE8 30.43S SAINT SIMONS CLOUDY 59 55 87 NE10 30.42S $$ SCZ027-028-034-036>038-045-046-048>050-GAZ119-141-240500- ...LAKE AND SUPPLEMENTAL COASTAL OBSERVATIONS... STATION/POSITION TIME TEMP WIND PRES WAVE SWELL AIR SEA DIR/SP/G HT/PER HT/PER/DIR (UTC) (F) (DEG/KT/KT) (MB) (FT/S) (FT/S/D) WINYAH BAY 0330 53 90/ 11 1033.0S LAKE MURRAY 0330 54 90/ 4/ 6 1031.8R ACE BASIN NERRS 0330 50 20/ 2 1032.0S FORT PULASKI 0400 57 61 70/ 16/ 21 1031.5 SAPELO ISLAND 0400 58 40/ 9 1030.0 $$ ANZ835-935-AMZ111-154-330-350-352-354-370-450-454-472-240500- ...C-MAN AND BUOY OBSERVATIONS... STATION/POSITION TIME TEMP WIND PRES WAVE SWELL AIR SEA DIR/SP/G HT/PER HT/PER/DIR (UTC) (F) (DEG/KT/KT) (MB) (FT/S) (FT/S/D) BUOY 41004 0350 64 71 80/ 17/ 23 1031.0R 6/ 7 3/ 90/ 9 BUOY 41008 0350 63 61 70/ 14/ 17 1029.7F 6/ 7 3/ 90/ 7 FOLLY BEACH CMAN 0400 57 60/ 18/ 21 1032.7R CAPERS NEARSHORE 0308 56 60/ 19/ 23 1032.3R FRIPP NEARSHORE 0408 58 60 60/ 17/ 21 1031.4F STATION/POSITION TIME TEMP WIND PRES WAVE SWELL AIR SEA DIR/SP/G HT/PER HT/PER/DIR (UTC) (F) (DEG/KT/KT) (MB) (FT/S) (FT/S/D) 5E ST. MARYS GA 0400 63 N/A 6/ 7 2/ 80/11 FRYING PAN BUOY 0410 59 66 60/ 14/ 17 1033.3 BUOY 41025 0350 52 71 20/ 10/ 16 1035.1F 8/11 8/ 50/11 CAPE LOOKOUT NC 0400 46 10/ 10/ 13 1034.7R BUOY 41002 0350 62 72 50/ 16/ 19 1032.3R 6/10 5/ 30/10 BUOY 41010 NOT AVBL ST AUGUSTINE FL 0400 66 65 90/ 13/ 15 1029.8R $$

USA.gov is the U.S. government's official web portal to all federal, state and local government web resources and services.